Weather observations for the past three days for
Tracy Municipal Airport
Imperial (Metric)
Date Time (pdt) Wind (mph) Vis. (mi.) Weather Sky Cond. Temperature (ºF) Relative Humidity Wind Chill (°F) Heat Index (°F) Pressure Precipitation (in)
Air Dwpt 6 hour altimeter (in) sea level (mb) 1 hr 3 hr 6 hr
Max. Min.
13 06:15 SE 6 10.00 Fair CLR 77 55.4 47% 79 29.8 0.0
13 05:55 E 5 G 14 10.00 Fair CLR 77 57.2 51% 79 29.79 0.0
13 05:35 SE 9 G 15 10.00 Fair CLR 75.2 57.2 54% 78 29.78 0.0
13 05:15 SE 12 10.00 A Few Clouds FEW041 75.2 59 57% 78 29.76 0.0
13 04:55 NE 9 G 15 10.00 Fair CLR 78.8 55.4 45% 79 29.74 0.0
13 04:35 Calm 10.00 Fair CLR 78.8 55.4 45% 79 29.75 0.0
13 04:15 NE 3 10.00 A Few Clouds FEW043 FEW050 FEW120 78.8 55.4 45% 79 29.74 0.0
13 03:55 S 6 10.00 A Few Clouds FEW048 77 55.4 47% 79 29.74 0.0
13 03:35 SE 7 10.00 A Few Clouds FEW044 77 55.4 47% 79 29.74 0.0
13 03:15 Calm 10.00 Partly Cloudy SCT043 78.8 53.6 42% 79 29.73 0.0
13 02:55 NW 3 10.00 Partly Cloudy SCT043 SCT048 80.6 53.6 39% 80 29.73 0.0
13 02:35 Calm 10.00 Partly Cloudy SCT044 80.6 53.6 39% 80 29.74 0.0
13 02:15 Calm 10.00 A Few Clouds FEW045 80.6 51.8 37% 80 29.75 0.0
13 01:55 SE 8 10.00 Mostly Cloudy BKN044 80.6 53.6 39% 80 29.75 0.0
13 01:35 E 8 G 14 10.00 Mostly Cloudy BKN044 80.6 53.6 39% 80 29.75 0.0
13 01:15 SE 10 10.00 A Few Clouds FEW044 80.6 53.6 39% 80 29.75 0.0
13 00:55 E 10 10.00 Fair CLR 80.6 53.6 39% 80 29.74 0.0
13 00:35 SE 8 10.00 A Few Clouds FEW047 80.6 53.6 39% 80 29.74 0.0
13 00:15 E 7 10.00 Fair CLR 84.2 53.6 35% 83 29.74 0.0
12 23:55 E 7 10.00 Fair CLR 87.8 48.2 25% 85 29.74 0.0
12 23:35 Calm 10.00 Fair CLR 89.6 48.2 24% 86 29.73 0.0
12 23:15 Calm 10.00 Fair CLR 93.2 48.2 21% 90 29.73 0.0
12 22:55 Calm 10.00 Fair CLR 89.6 50 26% 87 29.73 0.0
12 22:35 W 7 10.00 Fair CLR 91.4 48.2 23% 88 29.73 0.0
12 22:15 Calm 10.00 Fair CLR 91.4 50 24% 88 29.74 0.0
12 21:50 W 3 10.00 Fair CLR 91.4 50 24% 88 29.73 0.0
12 21:35 NW 5 10.00 Fair CLR 91.4 51.8 26% 89 29.74 0.0
12 21:15 NW 3 10.00 Fair CLR 93.2 48.2 21% 90 29.74 0.0
12 20:55 NW 6 10.00 Fair CLR 95 48.2 20% 92 29.74 0.0
12 20:35 NW 6 10.00 Fair CLR 96.8 48.2 19% 93 29.74 0.0
12 20:15 NW 6 10.00 Fair CLR 96.8 48.2 19% 93 29.74 0.0
12 19:55 NW 7 10.00 Fair CLR 98.6 50 19% 95 29.74 0.0
12 19:35 NW 7 10.00 Fair CLR 100.4 50 18% 97 29.75 0.0
12 19:15 NW 12 9.00 Fair CLR 102.2 48.2 16% 99 29.74 0.0
12 18:55 NW 10 G 17 9.00 Fair CLR 104 48.2 15% 101 29.74 0.0
12 18:25 NW 10 10.00 Fair CLR 105.8 46.4 13% 102 29.74 0.0
12 18:15 W 7 G 14 10.00 Fair CLR 105.8 46.4 13% 102 29.73 0.0
12 17:55 W 8 10.00 Fair CLR 105.8 46.4 13% 102 29.73 0.0
12 17:35 N 8 G 14 10.00 Fair CLR 104 55.4 20% 103 29.74 0.0
12 17:15 N 8 10.00 Fair CLR 104 53.6 19% 102 29.73 0.0
12 16:55 N 7 10.00 Fair CLR 105.8 53.6 18% 104 29.74 0.0
12 16:35 Vrbl 7 G 15 10.00 Fair CLR 105.8 55.4 19% 105 29.74 0.0
12 16:15 N 10 10.00 Fair CLR 105.8 55.4 19% 105 29.74 0.0
12 15:55 NE 10 10.00 Fair CLR 105.8 55.4 19% 105 29.74 0.0
12 15:35 N 9 10.00 Fair CLR 105.8 53.6 18% 104 29.74 0.0
12 15:15 N 12 10.00 Fair CLR 105.8 53.6 18% 104 29.75 0.0
12 14:55 N 12 10.00 Fair CLR 105.8 53.6 18% 104 29.75 0.0
12 14:35 N 8 10.00 Fair CLR 105.8 51.8 17% 103 29.76 0.0
12 14:15 N 7 9.00 Fair CLR 104 51.8 17% 102 29.76 0.0
12 13:55 Vrbl 8 9.00 Fair CLR 104 53.6 19% 102 29.77 0.0
12 13:30 N 8 10.00 Fair CLR 104 55.4 20% 103 29.77 0.0
12 13:15 N 8 10.00 Fair CLR 102.2 55.4 21% 101 29.78 0.0
12 12:55 N 7 10.00 Fair CLR 98.6 55.4 24% 97 29.79 0.0
12 12:35 NE 8 10.00 Fair CLR 98.6 55.4 24% 97 29.8 0.0
12 12:15 Vrbl 6 10.00 Fair CLR 98.6 57.2 25% 98 29.8 0.0
12 11:55 Vrbl 6 G 13 10.00 Fair CLR 95 59 30% 94 29.8 0.0
12 11:35 N 5 9.00 Fair CLR 93.2 59 32% 93 29.8 0.0
12 11:15 Calm 9.00 Fair CLR 91.4 59 34% 91 29.8 0.0
12 10:55 NE 6 9.00 Fair CLR 91.4 59 34% 91 29.81 0.0
12 10:35 N 5 9.00 Fair CLR 89.6 59 36% 89 29.81 0.0
12 10:15 N 5 10.00 Fair CLR 87.8 59 38% 87 29.8 0.0
12 09:55 N 5 10.00 Fair CLR 86 59 40% 85 29.8 0.0
12 09:35 N 3 9.00 Fair CLR 86 59 40% 85 29.8 0.0
12 09:15 NE 5 10.00 Fair CLR 84.2 59 43% 84 29.8 0.0
12 08:55 NE 3 9.00 Fair CLR 82.4 59 45% 82 29.8 0.0
12 08:35 NE 3 10.00 Fair CLR 80.6 59 48% 81 29.81 0.0
12 08:15 Calm 9.00 Fair CLR 78.8 59 51% 80 29.8 0.0
12 07:55 Calm 8.00 Fair CLR 78.8 57.2 48% 80 29.8 0.0
12 07:35 Calm 9.00 Fair CLR 77 55.4 47% 79 29.79 0.0
12 07:15 Calm 8.00 Fair CLR 75.2 55.4 50% 78 29.8 0.0
12 06:55 Calm 3.00 Fair with Haze CLR 75.2 53.6 47% 78 29.79 0.0
12 06:35 Calm 10.00 Fair CLR 73.4 53.6 50% 29.79 0.0
12 06:15 Calm 10.00 Fair CLR 73.4 53.6 50% 29.79 0.0
12 05:55 Calm 10.00 Fair CLR 73.4 51.8 47% 29.79 0.0
12 05:35 Calm 10.00 Fair CLR 75.2 53.6 47% 78 29.78 0.0
12 05:15 Calm 10.00 Fair CLR 77 50 39% 78 29.77 0.0
12 04:55 Calm 10.00 Fair CLR 77 50 39% 78 29.77 0.0
12 04:35 Calm 10.00 Fair CLR 77 48.2 36% 78 29.77 0.0
12 04:15 Calm 10.00 Fair CLR 77 48.2 36% 78 29.77 0.0
12 03:55 Calm 10.00 Fair CLR 77 50 39% 78 29.77 0.0
12 03:35 SE 3 10.00 Fair CLR 78.8 48.2 34% 79 29.77 0.0
12 03:15 SE 5 10.00 Fair CLR 78.8 48.2 34% 79 29.77 0.0
12 02:55 E 5 10.00 Fair CLR 77 48.2 36% 78 29.77 0.0
12 02:35 E 8 10.00 Fair CLR 78.8 46.4 32% 79 29.76 0.0
12 02:15 E 8 10.00 Fair CLR 86 41 20% 83 29.76 0.0
12 01:55 Calm 10.00 Fair CLR 87.8 35.6 16% 84 29.76 0.0
12 01:35 Calm 10.00 A Few Clouds FEW047 91.4 32 12% 87 29.76 0.0
12 01:15 Calm 10.00 A Few Clouds FEW046 FEW050 93.2 32 11% 89 29.76 0.0
12 00:55 Vrbl 3 10.00 A Few Clouds FEW050 93.2 32 11% 89 29.76 0.0
12 00:35 Calm 10.00 A Few Clouds FEW047 93.2 33.8 12% 89 29.77 0.0
12 00:15 W 6 10.00 Partly Cloudy SCT048 93.2 33.8 12% 89 29.77 0.0
11 23:55 W 6 10.00 A Few Clouds FEW050 93.2 35.6 13% 89 29.77 0.0
11 23:35 W 5 10.00 Fair CLR 95 35.6 12% 90 29.77 0.0
11 23:15 Calm 10.00 A Few Clouds FEW044 FEW050 95 35.6 12% 90 29.78 0.0
11 22:55 Calm 10.00 A Few Clouds FEW048 95 33.8 11% 90 29.78 0.0
11 22:35 Calm 10.00 Fair CLR 95 32 11% 90 29.78 0.0
11 22:15 Calm 10.00 Fair CLR 95 33.8 11% 90 29.78 0.0
11 21:55 Vrbl 5 G 12 10.00 Fair CLR 95 33.8 11% 90 29.78 0.0
11 21:35 SW 14 10.00 Fair CLR 96.8 33.8 11% 92 29.77 0.0
11 21:15 W 13 10.00 Fair CLR 96.8 33.8 11% 92 29.76 0.0
11 20:55 W 13 10.00 Fair CLR 98.6 32 10% 93 29.76 0.0
11 20:15 W 8 10.00 Fair CLR 98.6 50 19% 95 29.76 0.0
11 19:55 W 7 10.00 Fair CLR 102.2 50 17% 99 29.75 0.0
11 19:35 NW 8 10.00 Fair CLR 104 48.2 15% 101 29.75 0.0
11 19:15 N 7 10.00 Fair CLR 105.8 42.8 12% 101 29.75 0.0
11 18:55 N 7 10.00 Fair CLR 105.8 44.6 13% 101 29.75 0.0
11 18:35 N 8 10.00 Fair CLR 107.6 48.2 14% 104 29.75 0.0
11 16:40 NE 7 10.00 Fair CLR 107.6 44.6 12% 103 29.76 0.0
11 16:35 NE 7 10.00 Fair CLR 107.6 46.4 13% 104 29.76 0.0
11 16:15 N 9 10.00 Fair CLR 107.6 50 15% 105 29.77 0.0
11 15:55 N 8 10.00 Fair CLR 107.6 51.8 16% 105 29.77 0.0
11 15:35 NW 8 10.00 Fair CLR 105.8 53.6 18% 104 29.78 0.0
11 15:15 N 7 10.00 Fair CLR 105.8 50 15% 103 29.79 0.0
11 14:55 NE 7 10.00 Fair CLR 104 51.8 17% 102 29.79 0.0
11 06:15 Calm 10.00 Fair CLR 71.6 60.8 69% 29.82 0.0
11 05:50 NW 3 10.00 Mostly Cloudy BKN085 71.6 60.8 69% 29.81 0.0
11 05:30 NW 3 10.00 Overcast OVC085 73.4 60.8 65% 29.81 0.0
11 05:15 NW 6 10.00 Mostly Cloudy BKN085 75.2 59 57% 78 29.81 0.0
11 04:55 NW 3 9.00 Fair CLR 75.2 59 57% 78 29.8 0.0
11 04:35 NW 3 9.00 Fair CLR 75.2 59 57% 78 29.8 0.0
11 04:15 Calm 10.00 Fair CLR 77 60.8 57% 79 29.8 0.0
11 03:55 Calm 10.00 Fair CLR 77 59 54% 79 29.8 0.0
11 03:35 Calm 10.00 Fair CLR 75.2 59 57% 78 29.79 0.0
11 03:15 Calm 10.00 Fair CLR 75.2 59 57% 78 29.79 0.0
11 02:55 Calm 10.00 Fair CLR 77 59 54% 79 29.8 0.0
11 02:35 Calm 10.00 Fair CLR 78.8 59 51% 80 29.8 0.0
11 02:15 SE 5 10.00 Fair CLR 78.8 59 51% 80 29.8 0.0
11 01:55 SE 8 10.00 Fair CLR 78.8 59 51% 80 29.8 0.0
11 01:35 SE 6 10.00 Fair CLR 80.6 59 48% 81 29.8 0.0
11 01:15 E 5 10.00 Fair CLR 78.8 59 51% 80 29.8 0.0
11 00:55 E 3 10.00 Fair CLR 80.6 59 48% 81 29.8 0.0
11 00:35 SE 3 10.00 Fair CLR 82.4 57.2 42% 82 29.8 0.0
11 00:15 Calm 10.00 Fair CLR 82.4 59 45% 82 29.8 0.0
10 23:55 E 6 10.00 Fair CLR 82.4 59 45% 82 29.79 0.0
10 23:35 Calm 10.00 Fair CLR 84.2 59 43% 84 29.8 0.0
10 23:15 Calm 10.00 Fair CLR 86 59 40% 85 29.79 0.0
10 22:55 Calm 10.00 Fair CLR 86 59 40% 85 29.79 0.0
10 22:35 E 3 10.00 Fair CLR 86 59 40% 85 29.8 0.0
10 21:20 Calm 10.00 Fair CLR 91.4 53.6 28% 89 29.79 0.0
10 20:45 NW 3 10.00 Fair CLR 93.2 57.2 30% 92 29.78 0.0
10 20:35 N 6 10.00 Fair CLR 95 57.2 28% 94 29.78 0.0
10 20:15 NW 5 10.00 Fair CLR 96.8 57.2 27% 96 29.78 0.0
10 19:55 NW 6 10.00 Fair CLR 98.6 57.2 25% 98 29.78 0.0
10 19:35 N 6 10.00 Fair CLR 98.6 59 27% 98 29.78 0.0
10 19:15 N 7 10.00 Fair CLR 100.4 57.2 24% 100 29.78 0.0
10 18:35 N 9 10.00 Fair CLR 100.4 57.2 24% 100 29.78 0.0
10 18:15 N 8 10.00 Fair CLR 100.4 57.2 24% 100 29.78 0.0
10 17:55 N 7 10.00 Fair CLR 100.4 57.2 24% 100 29.78 0.0
10 17:35 N 8 10.00 Fair CLR 100.4 57.2 24% 100 29.78 0.0
10 12:55 N 8 9.00 Fair CLR 93.2 57.2 30% 92 29.85 0.0
10 06:50 Calm 9.00 Fair CLR 64.4 62.6 94% 29.84 0.0
10 06:35 Calm 9.00 Fair CLR 64.4 62.6 94% 29.84 0.0
Date Time (pdt) Wind (mph) Vis. (mi.) Weather Sky Cond. Air Dwpt Max. Min. Relative Humidity Wind Chill (°F) Heat Index (°F) altimeter (in) sea level (mb) 1 hr 3 hr 6 hr
6 hour
Temperature (ºF) Pressure Precipitation (in)